Miscellaneous Local Product
Issued by NWS North Platte, NE

Home | Current Version | Previous Version | Text Only | Print | Product List | Glossary On
Versions: 1 2 3 4 5 6 7 8 9 10 11 12 13 14 15 16 17 18 19 20 21 22 23 24 25 26 27 28 29 30 31 32 33 34 35 36 37 38 39 40 41 42 43 44 45 46 47 48 49 50
000
AXUS43 KLBF 021610
MISLBF


WESTERN AND NORTH CENTRAL NEBRASKA HOURLY WEATHER ROUNDUP
NATIONAL WEATHER SERVICE NORTH PLATTE NE
1100 AM CDT SUN AUG 02 2015

***STATIONS NOT REPORTING VARIABLES SUCH AS SKY/WEATHER OR
PRESSURE ARE PROVIDED BY THE NEBRASKA DEPARTMENT OF
ROADS...RAWS...AND APRS NETWORKS...AND ARE NOT UNDER
NATIONAL WEATHER SERVICE QUALITY CONTROL***

...OBSERVATIONS IN AND NEAR THE EASTERN PANHANDLE OF NEBRASKA...

CITY           SKY/WX    TMP DP  RH WIND       PRES   REMARKS
PINE RIDGE     SUNNY     82  57  42 N7        29.98S
CHADRON        SUNNY     83  57  41 N6        29.98S
ALLIANCE       SUNNY     82  59  45 W5        30.01S
SIDNEY         SUNNY     83  60  45 CALM      30.04S
BIG SPRINGS      N/A     80  64  58 CALM        N/A
$$

...OBSERVATIONS IN NORTH CENTRAL NEBRASKA...

CITY           SKY/WX    TMP DP  RH WIND       PRES   REMARKS
THEDFORD       SUNNY     84  64  51 NW6       29.94F
AINSWORTH      SUNNY     83  59  44 NW8       29.91S
O`NEILL        SUNNY     84  64  49 NW13      29.88R
ORD            SUNNY     85  69  58 W9        29.88S
BROKEN BOW     SUNNY     86  66  51 SW7       29.93S
SPRINGVIEW       N/A     83  65  53 NW6G13      N/A
CHAMBERS         N/A     89  64  42 MISG        N/A  HX  90
EWING            N/A     86  70  58 W5          N/A  HX  90
$$

...OBSERVATIONS IN SOUTHWEST NEBRASKA AND FAR NORTHEAST COLORADO...

CITY           SKY/WX    TMP DP  RH WIND       PRES   REMARKS
WRAY           FAIR      87  61  40 CALM      30.01S
HOLYOKE        FAIR      79  64  61 SE6       30.02R
IMPERIAL       MOSUNNY   84  66  54 SE5       29.98F
OGALLALA       SUNNY     78  64  61 CALM      29.98F
NORTH PLATTE   SUNNY     83  65  54 S3        29.94F
MCCOOK         SUNNY     86  69  56 CALM      29.94F HX  90
LEXINGTON      SUNNY     86  71  60 SW6       29.94F HX  91
PAXTON           N/A     78  67  69 CALM        N/A
BRADY            N/A     83  71  66 CALM        N/A
CALLAWAY         N/A     84  72  67 S3          N/A
$$

...NORTH PLATTE AREA...

CITY           SKY/WX    TMP DP  RH WIND       PRES   REMARKS
AIRPORT        SUNNY     83  65  54 S3        29.94F
DOWNTOWN         N/A     86  66  51 CALM        N/A
SANDRIDGE        N/A     86  64  48 S3          N/A
HILLCREST        N/A     83  65  55 SW3         N/A
$$

...SOME WEATHER OBSERVATIONS FROM AROUND THE REGION...

CITY           SKY/WX    TMP DP  RH WIND       PRES   REMARKS
DENVER         PTSUNNY   83  51  33 W5        30.11S
LARAMIE        SUNNY     72  43  35 CALM      30.25F
CHEYENNE       SUNNY     81  51  35 NE8       30.15S
SCOTTSBLUFF    SUNNY     80  58  46 NW5       30.02S
RAPID CITY     SUNNY     75  52  44 NE8       30.01R
PIERRE         SUNNY     79  60  52 N15       29.87R
WINNER         FAIR      82  61  48 N13       29.89R
SIOUX FALLS    MOSUNNY   81  65  58 NW13      29.79R
OMAHA          MOSUNNY   88  72  58 SW8       29.84F HX  94
GRAND ISLAND   SUNNY     86  71  60 W14       29.90S HX  91
KANSAS CITY    MOSUNNY   84  71  65 SW13      29.92S
WICHITA        MOSUNNY   83  68  60 S14       29.95F
HAYS           SUNNY     86  66  51 S7        29.95S
LIBERAL        MOSUNNY   81  64  57 S8        29.99F
GOODLAND       SUNNY     86  61  42 SE9       30.01S
$$



USA.gov is the U.S. government's official web portal to all federal, state and local government web resources and services.